Weather History for KDEC - December, 2012

Change the Weather History Date:

Thursday, December 13, 2012

  Actual Average Record
Temperature  
Mean Temperature 39 °F 31 °F  
Max Temperature 49 °F 39 °F 55 °F (2006)
Min Temperature 29 °F 23 °F 3 °F (2000)
Degree Days  
Heating Degree Days 26 34  
Month to date heating degree days 271 413  
Since 1 July heating degree days 1420 1494  
Cooling Degree Days 0 0  
Month to date cooling degree days 0 0  
Year to date cooling degree days 1427 1048  
Moisture  
Dew Point 27 °F    
Average Humidity 62    
Maximum Humidity 78    
Minimum Humidity 46    
Precipitation  
Precipitation 0.00 in 0.08 in 0.21 in (2000)
Month to date precipitation 0.88 1.05  
Year to date precipitation 24.73 36.96  
Sea Level Pressure  
Sea Level Pressure 30.29 in    
Wind  
Wind Speed 13 mph (South)    
Max Wind Speed 22 mph    
Max Gust Speed 26 mph    
Visibility 10 miles    
Events      
T = Trace of Precipitation, MM = Missing Value Source: NWS Daily Summary

Daily Weather History Graph

Daily Weather History Graph

Search for Another Location

Airport or City:

Trip Planner

Search our weather history database for the weather conditions in past years. The results will help you decide how hot, cold, wet, or windy it might be!

Date:

Astronomy

Dec. 13, 2012 Rise Set
Actual Time 7:08 AM CST 4:31 PM CST
Civil Twilight 6:38 AM CST 5:01 PM CST
Nautical Twilight 6:04 AM CST 5:35 PM CST
Astronomical Twilight 5:31 AM CST 6:08 PM CST
Moon 7:16 AM CST (12/13) 5:13 PM CST (12/13)
Length of Visible Light 10h 23m
Length of Day
9h 22m
New Moon, 0% of the Moon is Illuminated
Dec 13
New Moon
Dec 19
First Quarter
Dec 28
Full
Jan 4
Last Quarter
Jan 11
New

Hourly Weather History & Observations

Time (CST) Temp. Windchill Dew Point Humidity Pressure Visibility Wind Dir Wind Speed Gust Speed Precip Events Conditions
12:54 AM 32.0 °F 24.2 °F 27.0 °F 82% 30.34 in 10.0 mi South 9.2 mph - N/A   Clear
1:54 AM 32.0 °F 24.2 °F 26.1 °F 79% 30.34 in 10.0 mi South 9.2 mph - N/A   Clear
2:54 AM 32.0 °F 24.2 °F 26.1 °F 79% 30.34 in 10.0 mi South 9.2 mph - N/A   Clear
3:54 AM 32.0 °F 23.6 °F 26.1 °F 79% 30.33 in 10.0 mi South 10.4 mph - N/A   Clear
4:54 AM 32.0 °F 23.0 °F 25.0 °F 75% 30.33 in 10.0 mi South 11.5 mph - N/A   Clear
5:54 AM 32.0 °F 23.6 °F 25.0 °F 75% 30.34 in 10.0 mi South 10.4 mph - N/A   Clear
6:54 AM 30.0 °F 21.7 °F 25.0 °F 82% 30.35 in 10.0 mi South 9.2 mph - N/A   Clear
7:54 AM 32.0 °F 23.0 °F 25.0 °F 75% 30.34 in 10.0 mi South 11.5 mph - N/A   Clear
8:54 AM 36.0 °F 27.5 °F 27.0 °F 70% 30.34 in 10.0 mi South 12.7 mph - N/A   Clear
9:54 AM 39.0 °F 29.9 °F 28.0 °F 65% 30.33 in 10.0 mi South 17.3 mph 23.0 mph N/A   Clear
10:54 AM 43.0 °F 35.1 °F 28.9 °F 58% 30.32 in 10.0 mi SSW 17.3 mph - N/A   Clear
11:54 AM 44.1 °F 35.9 °F 28.0 °F 53% 30.29 in 10.0 mi South 19.6 mph 25.3 mph N/A   Clear
12:54 PM 46.0 °F 39.3 °F 28.0 °F 50% 30.25 in 10.0 mi South 16.1 mph 23.0 mph N/A   Clear
1:54 PM 48.0 °F - 30.0 °F 50% 30.23 in 10.0 mi South 15.0 mph 21.9 mph N/A   Clear
2:54 PM 48.9 °F - 28.9 °F 46% 30.22 in 10.0 mi South 12.7 mph - N/A   Clear
3:54 PM 46.9 °F - 28.0 °F 48% 30.20 in 10.0 mi South 15.0 mph 21.9 mph N/A   Clear
7:54 PM 39.9 °F 32.1 °F 28.0 °F 63% 30.19 in 10.0 mi South 13.8 mph - N/A   Clear
8:54 PM 39.9 °F 32.9 °F 27.0 °F 60% 30.19 in 10.0 mi SSW 11.5 mph - N/A   Clear
9:54 PM 37.9 °F 30.0 °F 28.0 °F 68% 30.22 in 10.0 mi SW 12.7 mph - N/A   Clear
10:54 PM 36.0 °F 28.5 °F 28.0 °F 73% 30.22 in 10.0 mi SSW 10.4 mph - N/A   Clear